GFSNGP_2pvu_pres_087.txt.gz
Presure
243 246 244 249 252 277 274 283 286 269 245 236 223 228 234 229 230 215 201 210 225 204 204 200 200 191 189 189 182 183 190 184 185 184 182 188 191 184 173 189 187 180 188 193
246 251 253 258 258 291 268 276 278 243 229 232 224 230 215 230 226 223 204 192 217 212 202 200 198 202 194 190 183 182 182 186 182 190 183 191 192 197 191 194 183 174 171 173
251 257 277 284 265 283 258 270 244 232 223 218 220 234 219 219 224 228 210 224 200 218 223 202 198 194 191 192 190 182 188 189 182 179 180 181 183 169 172 183 182 186 193 176
276 277 275 251 270 272 256 262 238 230 218 221 213 232 220 223 221 210 207 226 218 205 218 216 200 197 188 186 193 192 187 173 182 186 181 184 187 183 183 182 175 188 191 187
273 279 277 275 261 264 247 258 238 236 231 219 218 207 213 230 229 224 211 224 213 211 212 222 217 200 199 197 188 181 179 181 183 174 185 183 189 189 185 187 191 191 189 193
274 279 290 269 250 257 248 235 239 229 223 210 212 211 210 208 201 223 208 215 217 234 216 240 217 212 214 198 196 194 193 195 196 196 193 184 186 187 188 190 199 199 199 202
263 275 286 262 246 252 243 245 252 230 223 220 221 211 210 207 213 204 209 141 213 196 198 190 155 207 211 210 210 209 209 211 211 209 208 202 201 205 206 207 205 208 205 205
261 274 260 257 270 249 261 246 233 234 228 223 224 215 212 216 218 217 221 214 209 202 203 209 210 223 200 219 205 203 207 208 209 206 214 209 212 216 213 217 212 212 215 211
255 259 261 261 280 246 243 250 249 243 228 221 222 220 221 222 209 221 208 213 210 211 209 208 213 216 208 221 214 205 195 197 205 207 210 213 217 203 200 201 208 206 210 214
258 259 259 267 274 260 245 245 253 241 231 234 227 220 223 221 225 212 225 221 214 208 211 212 212 214 205 208 219 228 222 209 216 223 223 203 215 221 214 209 215 211 207 223
277 280 238 254 261 267 259 240 244 239 239 235 233 240 224 223 216 220 214 214 215 209 210 211 214 217 218 214 216 217 214 219 218 216 216 222 224 224 210 216 202 220 223 209
314 319 315 322 252 266 271 250 241 244 237 247 232 235 235 231 223 224 216 222 220 211 210 209 213 214 210 212 214 213 222 225 229 234 232 221 220 224 227 226 220 216 214 224
323 310 318 302 282 246 272 278 256 247 244 235 250 237 228 225 228 234 225 223 224 223 221 219 215 233 224 224 223 225 230 220 218 218 224 214 221 218 215 215 215 226 239 234
299 302 298 304 301 304 265 271 280 270 254 246 242 245 249 241 234 240 243 240 230 225 225 226 226 226 227 224 219 217 221 222 223 221 221 225 223 218 224 234 248 245 232 241
309 294 300 298 310 313 288 272 257 268 284 262 251 247 245 239 235 237 237 232 232 236 229 228 226 227 227 225 225 225 234 240 242 245 248 252 252 250 248 247 249 253 256 262
294 301 297 302 308 310 310 316 270 276 261 260 279 264 257 254 253 245 240 238 236 236 235 236 240 247 242 237 236 236 239 248 249 248 248 247 246 248 251 263 269 159 130 126
288 288 291 299 288 278 283 282 319 321 297 280 264 253 253 268 260 252 248 248 248 247 244 243 243 243 248 261 259 256 255 256 254 255 260 262 264 270 265 267 306 306 300 283
283 283 279 285 297 307 305 292 291 290 286 268 290 234 279 273 261 257 263 276 274 268 264 263 262 261 260 260 257 254 257 264 265 270 278 314 311 307 300 289 279 279 295 328
289 287 285 285 288 290 296 301 301 300 297 296 292 285 277 273 281 284 287 290 292 295 298 300 301 302 305 305 307 306 302 296 286 150 276 280 281 313 333 329 325 321 316 313
290 288 254 277 278 300 288 287 289 290 292 292 294 295 295 293 288 276 274 272 273 273 270 268 269 270 273 280 285 287 317 291 315 319 314 314 317 323 316 314 309 306 302 322
283 282 284 120 289 291 293 296 298 300 303 307 309 311 312 312 314 295 314 314 314 313 311 313 313 329 337 336 339 348 346 346 347 341 340 378 375 369 363 360 350 344 340 332
265 145 273 275 274 278 282 283 285 286 287 287 288 289 315 317 319 319 319 319 320 292 313 309 309 307 305 304 304 303 304 297 294 295 296 295 295 298 301 302 303 304 301 296
271 276 277 279 284 286 287 288 289 290 290 291 291 293 294 294 295 296 295 294 295 294 293 292 291 289 288 285 284 284 284 284 280 282 280 283 282 283 284 285 286 286 288 289
265 264 267 267 269 272 272 273 274 275 276 277 277 277 277 277 277 279 280 280 281 283 284 284 285 284 283 282 282 281 281 281 283 285 285 283 283 282 281 281 279 280 280 279
257 260 261 262 264 266 266 269 272 272 273 275 277 279 280 281 281 282 280 279 278 278 280 281 282 283 284 283 284 285 286 286 286 286 289 293 292 290 289 289 289 290 290 290
282 286 293 300 308 312 318 328 337 347 352 353 355 355 357 369 339 359 356 354 354 353 350 347 344 343 343 342 339 338 338 339 371 374 373 376 350 339 331 327 329 323 325 322
326 345 357 351 340 333 327 326 369 368 379 381 378 372 370 367 366 365 364 363 364 364 362 362 365 365 365 366 366 364 364 359 357 358 358 358 356 355 353 351 349 347 346 344

GFSNGP_2pvu_pres_093.txt.gz
Presure
245 243 239 237 243 237 242 254 255 254 245 248 247 249 248 298 282 242 246 248 247 256 249 234 245 245 233 218 206 205 191 189 206 187 185 183 187 188 185 189 195 197 181 183
262 271 266 257 257 256 248 249 247 248 246 240 247 252 283 278 256 226 227 238 240 224 246 242 239 229 214 214 193 201 191 189 184 200 192 188 189 186 196 191 189 188 188 169
268 271 262 253 249 245 241 251 246 240 239 243 267 270 264 268 257 241 237 224 209 220 234 228 219 212 213 211 202 198 197 193 184 198 197 199 191 192 190 187 189 187 191 194
256 259 254 250 248 241 246 248 246 242 245 257 277 249 247 257 239 230 232 225 231 207 234 212 210 211 205 191 209 199 185 200 197 195 183 192 197 203 198 196 192 193 194 186
252 255 251 250 249 244 243 246 241 248 242 243 256 238 242 262 232 229 226 209 222 221 211 207 208 202 204 207 205 211 194 196 218 195 191 198 194 191 198 201 199 178 182 188
254 254 253 251 248 244 243 243 242 253 250 279 242 234 232 252 228 220 217 222 219 215 220 206 203 207 218 206 194 201 176 192 200 197 203 192 197 201 200 186 198 200 200 197
253 249 248 250 255 254 252 248 259 252 263 299 234 232 231 234 245 228 227 221 226 224 213 220 204 204 215 211 194 190 211 213 215 183 198 197 198 205 203 199 198 199 201 192
262 256 256 257 256 257 256 258 256 271 291 247 244 231 235 227 220 229 230 221 218 222 214 222 217 202 220 213 211 212 188 191 191 201 202 196 183 200 198 200 197 200 203 201
257 256 256 268 266 268 272 268 279 282 288 256 257 237 232 228 231 234 222 218 224 220 218 232 217 211 213 212 202 206 204 204 209 190 199 184 208 211 213 210 203 204 198 201
256 254 262 265 272 277 277 278 268 281 284 271 246 249 234 234 230 230 227 222 225 217 214 215 224 228 201 214 212 204 216 209 215 203 199 212 201 206 221 217 205 210 211 214
250 263 255 248 263 271 271 270 264 275 292 282 247 257 234 234 233 225 242 235 225 223 222 217 211 215 229 208 213 219 209 216 207 212 195 209 183 212 207 214 204 213 210 190
261 271 273 285 246 256 281 276 270 263 272 305 254 253 259 235 232 235 238 229 227 232 223 224 218 211 229 206 211 233 223 220 205 212 221 223 212 221 224 228 243 221 238 217
267 265 276 262 251 259 260 255 281 262 275 296 298 254 247 252 240 233 235 228 239 244 234 235 222 217 218 220 218 216 234 216 219 224 219 208 212 211 193 202 202 185 225 214
264 273 274 274 275 276 280 279 277 265 253 279 298 288 255 261 250 242 235 239 229 221 227 227 240 230 232 217 221 218 217 223 236 225 216 219 216 213 213 216 213 213 215 222
259 262 264 265 266 268 267 274 276 274 278 255 276 293 285 249 261 248 242 231 234 239 234 237 231 219 221 226 227 225 225 222 223 227 226 226 224 218 217 226 222 227 225 227
287 292 295 297 312 310 312 312 317 314 316 269 261 259 279 294 264 261 252 246 238 239 241 239 233 228 232 237 234 225 222 220 221 223 223 223 222 224 228 228 225 238 229 225
322 335 342 316 314 309 305 311 309 315 314 323 322 330 279 253 275 290 265 264 251 246 250 247 245 248 254 250 239 227 226 227 227 232 244 231 230 236 238 240 247 248 247 241
325 311 316 313 304 306 300 298 297 304 301 303 308 312 312 317 320 268 265 235 238 263 262 261 255 260 258 253 254 252 250 234 248 247 248 248 244 247 254 252 248 241 242 247
323 318 310 314 318 316 307 292 293 293 291 293 293 296 296 300 299 305 309 299 273 278 283 283 231 270 269 269 268 268 265 264 244 259 256 255 249 247 253 251 253 257 262 264
299 309 335 300 311 329 331 330 304 330 311 303 306 309 303 306 314 319 318 327 320 314 314 282 281 280 283 288 294 296 295 268 261 256 254 252 264 270 266 292 295 289 288 292
279 279 281 282 281 281 285 284 286 292 294 295 296 301 304 303 306 309 310 308 308 317 323 326 329 332 332 333 334 333 333 331 328 332 333 306 304 309 302 315 292 294 295 317
281 259 281 265 280 146 272 277 282 226 286 291 291 302 302 301 304 306 306 302 307 309 309 310 312 313 315 316 321 324 324 324 326 328 325 328 333 330 331 328 326 325 323 319
245 256 258 261 261 263 142 217 270 274 275 276 278 279 280 283 284 286 287 290 293 297 299 302 306 309 312 314 315 316 318 318 317 316 315 313 313 312 311 308 307 306 303 301
254 252 253 253 255 134 261 263 264 265 266 269 273 274 275 276 278 281 282 284 288 291 292 294 295 296 297 297 298 299 299 299 299 300 300 300 300 300 300 297 295 293 291 289
274 264 280 285 286 293 312 333 339 346 347 347 350 356 360 358 361 365 330 327 317 316 313 301 298 297 296 295 295 295 295 294 293 292 294 296 299 301 302 303 312 322 326 314
279 294 312 346 348 349 355 367 377 383 388 390 387 386 384 383 384 385 384 383 382 381 380 379 380 383 384 379 374 385 385 385 361 360 380 379 378 377 375 375 374 383 383 385
314 338 358 369 374 367 361 355 357 371 382 390 392 389 387 385 385 386 387 392 434 433 432 431 431 431 432 433 445 462 463 462 458 456 455 455 453 449 449 448 443 443 442 438

GFSNGP_2pvu_pres_096.txt.gz
Presure
239 245 240 241 239 238 238 239 241 231 226 229 240 243 249 257 260 263 293 274 282 284 275 294 319 347 337 283 265 245 238 248 227 211 193 185 190 175 181 183 183 189 185 181
249 242 242 241 238 239 243 240 239 238 238 239 236 241 260 256 259 305 244 231 236 240 280 338 328 355 356 309 283 237 251 236 222 209 191 191 191 176 183 183 181 183 183 177
245 240 240 243 243 242 240 237 238 229 234 232 257 254 255 254 287 239 225 227 224 230 229 240 240 259 253 252 249 246 237 227 216 204 190 191 196 174 177 185 183 187 184 184
246 241 240 242 238 237 240 241 243 247 245 251 248 249 246 259 296 239 229 211 204 214 211 213 234 227 239 237 237 236 227 218 208 204 191 198 187 199 192 183 186 189 185 182
255 254 253 257 259 262 265 258 254 253 243 245 246 238 237 278 278 231 228 219 218 205 230 202 246 233 229 236 228 218 216 206 201 198 179 196 181 191 175 199 201 194 193 193
248 250 260 249 255 261 260 252 246 244 240 247 247 230 239 259 281 224 217 221 229 222 212 214 201 227 218 223 216 215 209 204 203 192 190 180 205 208 199 195 200 206 221 202
252 258 255 249 252 254 254 251 247 242 244 250 243 233 255 245 260 232 220 227 230 210 211 207 208 234 222 214 208 202 221 205 203 192 191 188 186 169 204 214 200 206 195 190
261 259 251 258 255 256 251 248 250 246 247 244 241 243 233 246 245 261 233 223 228 229 205 202 220 217 210 218 212 204 207 212 207 209 192 198 198 193 192 182 179 195 198 185
258 259 256 253 258 259 258 253 254 256 250 246 244 261 238 255 238 246 250 238 231 216 226 220 223 207 244 213 205 212 200 213 209 196 206 202 193 191 191 195 215 201 195 202
260 167 266 268 265 265 263 262 257 251 253 260 268 272 250 291 243 237 238 248 237 231 230 218 208 223 211 209 216 203 202 212 205 203 201 190 184 190 201 186 215 204 203 211
258 259 255 244 254 256 256 259 260 263 271 272 268 281 286 294 245 237 236 252 243 239 230 226 214 221 220 230 215 208 215 205 200 210 214 205 206 204 201 200 208 205 209 205
263 261 261 258 255 255 257 262 267 273 279 276 290 269 273 290 257 245 240 238 243 248 231 225 224 223 221 223 220 216 212 221 209 192 209 205 198 200 204 201 198 215 200 207
270 260 258 258 261 256 263 275 254 257 266 278 280 272 280 289 273 247 247 235 239 247 262 250 226 236 219 229 220 227 225 222 209 212 203 205 225 209 216 216 214 214 214 222
283 282 277 278 275 260 259 269 271 283 250 257 277 278 259 262 290 260 254 248 247 236 244 248 246 235 226 229 232 237 206 218 227 224 234 218 213 213 213 221 222 223 226 233
264 271 275 278 278 277 276 274 272 280 254 248 259 252 261 276 266 289 260 249 261 250 247 240 242 244 199 239 229 221 231 227 224 219 222 224 225 229 217 224 221 222 228 228
260 260 260 260 262 264 265 267 269 270 271 272 271 271 272 251 264 271 285 269 247 260 252 247 249 240 242 247 242 240 238 216 234 231 233 227 225 228 225 225 227 227 232 233
291 288 288 287 284 286 287 292 301 302 322 322 323 327 291 272 273 275 253 284 290 257 253 260 250 248 243 245 237 237 240 241 239 245 241 236 239 233 234 232 242 232 236 232
349 338 321 341 333 329 328 323 333 319 309 311 314 303 311 314 318 300 277 266 271 283 288 268 260 257 265 259 252 251 249 245 237 246 241 244 244 241 236 238 237 242 244 234
335 333 327 315 335 330 331 319 321 319 317 322 321 320 316 302 316 314 318 300 275 275 266 278 286 287 270 261 265 270 265 257 250 260 257 237 245 251 251 248 243 240 246 240
314 312 312 308 308 311 310 306 296 311 319 328 320 318 332 325 326 336 339 322 313 312 302 281 279 281 288 294 295 291 279 271 273 271 262 260 253 239 239 241 265 265 265 267
272 272 274 273 275 278 275 277 285 282 277 280 290 290 288 289 290 298 301 305 308 313 322 321 310 295 291 293 281 278 277 278 300 306 302 302 301 300 301 304 300 298 293 293
264 264 209 268 270 270 271 272 218 186 274 274 276 280 285 287 288 290 295 298 302 306 309 313 317 317 315 314 313 313 327 330 329 328 328 329 333 335 337 337 336 337 338 337
259 263 263 264 265 266 269 270 274 274 275 276 278 281 285 287 287 287 288 293 295 297 299 304 305 306 306 307 310 313 315 316 318 320 321 322 323 324 324 325 325 325 324 324
272 270 297 256 255 266 286 289 292 289 303 305 303 310 314 304 303 311 300 305 305 305 306 304 301 293 292 293 296 300 303 308 309 310 311 313 312 312 312 312 311 311 311 310
264 279 276 277 276 286 331 340 374 376 378 380 382 384 385 388 390 396 401 402 403 405 405 406 406 405 403 376 344 341 342 338 340 342 326 326 334 334 324 324 332 371 385 382
264 279 267 294 333 360 365 368 368 365 368 371 376 380 383 389 391 393 396 397 399 401 402 404 405 404 402 401 401 415 418 418 416 417 419 424 428 430 471 471 469 465 464 464
267 282 264 311 364 376 376 374 373 370 368 369 368 368 371 378 431 446 439 435 430 427 426 426 425 424 423 421 418 416 414 412 410 409 407 405 403 399 402 405 412 417 477 469

GFSNGP_2pvu_pres_102.txt.gz
Presure
236 239 242 239 235 231 225 226 225 232 237 245 249 246 239 242 248 249 248 243 241 245 246 246 240 234 224 218 224 240 242 232 230 226 219 147 138 215 226 225 233 251 211 198
234 241 242 251 234 232 230 234 226 227 226 224 230 232 228 222 227 226 224 234 228 233 233 235 239 241 237 244 246 239 239 238 237 236 231 220 208 221 234 240 246 236 213 199
235 236 235 244 238 234 233 225 222 222 224 219 219 221 222 221 221 222 229 231 233 236 242 240 240 245 241 237 178 214 231 222 226 169 224 215 237 234 239 237 251 222 239 207
232 235 239 238 244 232 227 233 226 219 217 219 219 221 226 232 233 244 239 236 236 242 242 240 240 248 242 252 264 271 289 283 281 302 257 255 238 230 234 227 228 220 253 216
239 237 235 233 236 234 239 245 238 224 224 223 228 236 238 243 238 232 229 235 245 241 240 248 249 247 239 223 234 239 260 284 276 266 263 289 244 241 233 242 228 237 256 224
244 239 242 235 235 233 234 234 236 236 232 232 236 235 234 234 239 237 243 244 246 247 241 259 244 226 221 228 210 225 238 264 280 278 274 271 240 243 236 233 231 229 225 237
245 243 242 238 233 236 238 233 231 231 233 233 230 231 232 236 236 236 233 240 237 263 258 239 227 231 215 225 212 217 225 253 252 281 275 236 248 234 212 233 213 227 244 242
260 252 239 239 237 235 236 231 230 228 231 235 236 237 238 237 237 236 231 236 241 262 258 233 225 229 232 227 214 212 219 228 243 244 212 226 242 200 213 203 201 205 212 208
265 263 256 246 244 240 238 236 237 238 240 241 238 233 234 236 240 266 263 250 251 253 255 228 223 217 210 222 231 214 214 203 223 232 223 232 214 225 198 191 195 203 190 174
268 267 242 246 245 244 244 241 241 240 238 239 239 242 249 262 268 266 256 249 247 234 256 227 227 228 214 206 222 215 216 210 206 230 224 223 212 214 195 199 207 194 181 179
259 265 269 269 259 256 251 253 256 256 253 251 254 251 258 251 266 260 253 252 239 230 263 225 222 232 214 220 222 215 228 214 218 206 194 230 224 190 212 210 197 206 215 212
269 261 262 263 278 275 269 268 266 261 259 259 247 256 254 250 257 259 252 248 253 257 263 251 225 230 220 228 212 216 214 226 207 198 225 211 222 216 197 202 207 204 198 176
256 256 256 260 273 269 277 272 270 267 265 265 265 260 260 255 257 257 257 259 253 249 262 264 247 239 222 232 215 214 224 214 229 226 217 210 224 191 212 197 198 190 201 205
258 254 256 256 257 278 275 269 268 267 263 262 262 260 260 262 272 271 262 255 261 255 269 282 279 239 231 236 227 228 219 228 226 212 212 217 213 213 229 210 208 204 215 208
267 253 249 253 249 259 280 281 280 278 276 275 272 268 265 249 249 258 262 262 265 269 275 284 293 292 262 232 238 223 225 223 224 221 225 227 227 220 216 220 221 232 227 214
267 262 254 254 259 264 275 284 283 280 275 274 273 274 274 275 281 283 281 283 285 276 280 280 271 282 314 308 237 241 232 244 239 225 223 226 223 230 224 227 245 207 205 233
286 279 267 260 258 257 257 258 259 259 263 272 279 283 286 286 286 287 289 290 292 292 291 292 293 298 272 310 305 327 246 235 239 230 244 236 235 230 238 236 233 228 238 247
302 305 289 279 272 266 264 264 263 261 259 260 262 263 263 264 267 269 272 273 274 276 277 278 281 285 291 267 297 313 310 302 262 238 237 233 237 235 237 244 237 238 240 238
365 371 371 373 371 366 365 361 353 350 342 337 334 331 331 330 330 330 338 346 346 344 349 351 345 326 320 282 286 291 304 286 297 306 298 260 259 252 250 249 233 238 241 246
317 313 313 307 303 304 302 301 300 298 297 293 297 293 295 299 301 301 304 306 309 311 312 316 326 330 337 343 349 361 363 349 295 299 275 291 319 324 275 272 251 246 250 236
287 286 286 285 283 283 280 278 278 280 283 284 284 285 284 280 287 290 290 295 295 299 299 301 305 311 313 319 324 326 333 341 344 350 351 318 305 307 292 316 320 317 312 282
268 266 265 267 270 271 273 275 276 277 282 283 288 292 290 294 290 292 294 298 302 309 308 309 308 301 298 300 304 310 316 321 323 327 332 338 341 344 346 348 322 302 299 304
261 263 265 260 263 270 263 265 284 295 300 298 302 307 324 306 302 302 323 327 324 326 378 390 367 340 338 334 325 317 300 306 305 307 311 317 321 327 330 332 334 338 343 345
261 264 262 261 268 261 296 294 293 286 296 323 355 304 312 326 401 399 392 394 396 393 386 386 389 396 398 395 391 386 369 360 353 349 329 296 298 305 310 313 317 319 321 325
254 251 258 264 263 289 287 282 285 297 277 338 311 317 388 416 444 473 497 494 488 483 480 471 450 411 392 383 384 389 392 394 395 394 395 392 389 388 389 396 396 398 399 337
252 258 275 282 291 284 275 289 310 298 330 313 325 415 436 465 447 437 433 431 444 462 460 457 453 450 449 448 446 445 443 406 403 406 383 384 387 388 389 390 390 390 392 393
256 268 277 290 292 274 287 314 326 317 308 325 414 440 427 423 421 413 410 410 441 440 428 421 416 414 413 412 412 413 414 416 419 420 421 422 420 419 417 417 415 415 419 423